#timestamp,LO_Frequency,Hit,StdDev 
1514530815.5,286047000.5,N
1514530835.3,286046999.8,N
1514530855.2,286047000.3,N
1514530875.0,286046998.1,N
1514530875.9,286046998.1,N
1514530895.8,286046998.2,N
1514530915.6,286046998.4,N
1514530935.4,286046998.5,N
1514530955.3,286046998.5,N
1514530975.1,286046998.6,N
1514530995.9,286046998.6,N
1514531015.7,286046998.4,N
1514531035.5,286046998.5,N
1514531055.4,286046998.3,N
1514531075.2,286046996.6,N
1514531095.1,286046999.3,N
1514531096.0,286046999.3,N
1514531115.8,286046998.9,N
1514531135.6,286046996.5,N
1514531155.5,286046997.0,N
1514531175.3,286046995.1,Y
1514531195.2,286046997.9,P
1514531215.9,286046994.9,P
1514531235.7,286046994.9,N
1514531255.6,286046995.1,N
1514531275.4,286046995.1,N
1514531295.2,286046994.9,N
1514531315.1,286046995.2,N
1514531316.0,286046995.2,Y
1514531335.8,286047000.8,P
1514531355.7,286047000.1,N
1514531375.5,286047002.8,N
1514531395.4,286047001.0,N
1514531415.2,286046999.0,N
1514531435.0,286046999.5,N
1514531435.9,286046999.5,N
1514531455.8,286046999.6,N
1514531475.6,286046998.8,N
1514531495.5,286046996.5,N
1514531515.3,286046996.8,N
1514531535.1,286046997.7,N
1514531555.9,286046999.6,N
1514531575.7,286047001.2,N
1514531595.5,286047000.4,N
1514531615.4,286047000.5,N
1514531635.2,286046999.9,N
1514531655.1,286047001.1,N
1514531656.0,286047001.1,N
1514531675.8,286046998.3,N
1514531695.6,286046998.4,N
1514531715.5,286046999.0,N
1514531735.3,286046997.3,N
1514531755.1,286046997.0,N
1514531775.9,286046999.1,N
1514531795.7,286046999.3,N
1514531815.6,286046999.3,N
1514531835.4,286046996.9,N
1514531855.2,286046997.3,N
1514531875.1,286046995.4,N
1514531876.0,286046995.4,N
1514531895.8,286046997.0,N
1514531915.7,286046996.0,N
1514531935.5,286046995.4,N
1514531955.3,286046996.4,N
1514531975.2,286046995.9,N
1514531995.0,286046995.3,N
1514531995.9,286046995.3,N
1514532015.8,286046995.4,N
1514532035.6,286046996.2,N
1514532055.4,286046998.0,N
1514532075.3,286046997.1,N
1514532095.1,286046997.5,N
1514532115.9,286046995.6,N
1514532135.7,286046997.3,N
1514532155.5,286046995.2,N
1514532175.4,286046995.8,N
1514532195.2,286046995.2,N
1514532215.0,286046995.9,N
1514532216.0,286046995.9,Y
1514532235.8,286046999.6,P
1514532255.6,286046996.8,N
1514532275.5,286046999.6,N
1514532295.3,286046998.9,N
1514532315.1,286046999.0,N
1514532335.9,286047000.4,N
1514532355.7,286047002.6,N
1514532375.6,286047002.8,N
1514532395.4,286047001.0,N
1514532415.2,286046999.1,N
1514532435.1,286047000.8,N
1514532436.0,286047000.8,N
1514532455.8,286046998.7,N
1514532475.7,286047000.7,N
1514532495.5,286047001.1,N
1514532515.3,286046998.5,N
1514532535.2,286046999.1,N
1514532555.0,286046999.3,N
1514532555.9,286046999.3,N
1514532575.8,286046998.9,N
1514532595.6,286046996.6,N
1514532615.4,286046996.9,N
1514532635.3,286046999.0,N
1514532655.1,286046998.5,N
1514532675.9,286046997.7,N
1514532695.7,286046997.5,N
1514532715.5,286046995.0,Y
1514532735.4,286046999.4,P
1514532755.2,286046999.0,P
1514532775.0,286046999.0,P
1514532776.0,286046999.0,Y
1514532795.8,286047000.7,P
1514532815.6,286046998.4,N
1514532835.5,286047001.2,N
1514532855.3,286047001.2,N
1514532875.1,286047000.5,N
1514532895.9,286047000.9,N
1514532915.7,286047002.3,N
1514532935.6,286047002.8,N
1514532955.4,286047002.7,N
1514532975.2,286047001.8,N
1514532995.1,286047002.1,N
1514532996.0,286047002.1,N
1514533015.8,286047002.3,N
1514533035.6,286046999.8,N
1514533055.5,286047002.1,N
1514533075.3,286046999.7,N
1514533095.2,286047002.6,N
1514533115.0,286047001.4,N
1514533115.9,286047001.4,N
1514533135.7,286047001.9,N
1514533155.6,286047002.4,N
1514533175.4,286047002.2,N
1514533195.3,286047001.7,N
1514533215.1,286047003.9,Y
1514533235.8,286047004.1,P
1514533255.7,286047002.5,N
1514533275.5,286047002.2,N
1514533295.4,286047002.1,N
1514533315.2,286046999.9,N
1514533335.0,286047001.6,N
1514533335.9,286047001.6,N
1514533355.8,286047001.6,N
1514533375.6,286047003.2,Y
1514533395.5,286047000.6,P
1514533415.3,286046998.2,N
1514533435.1,286046999.4,N
1514533455.9,286046999.2,N
1514533475.7,286046999.0,N
1514533495.6,286046998.9,N
1514533515.4,286047000.7,N
1514533535.2,286047000.7,N
1514533555.1,286047001.2,N
1514533556.0,286047001.2,N
1514533575.8,286047001.2,N
1514533595.6,286046998.2,N
1514533615.5,286046999.4,N
1514533635.3,286046997.3,N
1514533655.2,286046999.5,N
1514533675.9,286046999.6,N
1514533695.7,286046996.9,N
1514533715.6,286046997.5,N
1514533735.4,286046997.5,N
1514533755.2,286046997.9,N
1514533775.1,286046999.1,N
1514533776.0,286046999.1,N
1514533795.8,286046999.6,N
1514533815.7,286047001.2,N
1514533835.5,286047001.2,N
1514533855.3,286046999.0,N
1514533875.2,286046999.6,N
1514533895.0,286047000.3,N
1514533895.9,286047000.3,N
1514533915.8,286047000.5,N
1514533935.6,286047000.7,N
1514533955.4,286047000.3,N
1514533975.3,286047000.7,N
1514533995.1,286046998.7,N
1514534015.8,286046998.6,N
1514534035.7,286046999.3,N
1514534055.5,286047001.0,N
1514534075.4,286047001.1,N
1514534095.2,286046998.1,N
1514534115.0,286047000.4,N
1514534115.9,286047000.4,N
1514534135.8,286047002.7,N
1514534155.6,286046999.8,N
1514534175.4,286047002.6,N
1514534195.3,286047002.5,N
1514534215.1,286046999.9,N
1514534235.9,286047002.8,N
1514534255.7,286047001.0,N
1514534275.5,286047000.4,N
1514534295.4,286046998.2,N
1514534315.2,286047000.6,N
1514534335.0,286046998.9,N
1514534335.9,286046998.9,N
1514534355.9,286046998.8,N
1514534375.7,286046998.1,N
1514534395.6,286047001.1,N
